Location: ????????
(37.6846°N, 24.0673°E)
Time: 11:38:41
(UTC+00:00)

Cosmos 1066 Rocket - Pass Details

Date: 14 July 2020
Orbit: 799 x 894 km, 81.2° (Epoch: 09 August)

Event Time Altitude Azimuth Distance (km) Brightness Sun altitude
Rises 01:07:20 0° 351° (N) 3,512 8.0 -20.1°
Reaches altitude 10° 01:09:48 10° 351° (N) 2,570 7.3 -19.8°
Maximum altitude 01:15:42 90° 330° (NNW) 897 4.3 -19.0°
Enters shadow 01:20:22 17° 173° (S) 2,108 5.9 -18.4°
